WA3WZR Weather Reports


time (UTC)temp
C
wind
direction
speed
KPH
gust
KPH
rain 1hr
cm
rain 24hr
cm
rain mn
cm
humidity
%
barometer
mb
20260504050352 6 284 0.0 0.0 0.00 0.00 0.00 78 1014.5
20260504045830 6 284 0.0 0.0 0.00 0.00 0.00 77 1014.5
20260504045330 6 284 0.0 0.0 0.00 0.00 0.00 76 1014.5
20260504044834 6 284 0.0 0.0 0.00 0.00 0.00 76 1014.5
20260504044353 6 284 0.0 0.0 0.00 0.00 0.00 76 1014.5
20260504043832 6 284 0.0 0.0 0.00 0.00 0.00 75 1014.5
20260504043334 6 284 0.0 0.0 0.00 0.00 0.00 74 1014.5
20260504042854 6 284 0.0 0.0 0.00 0.00 0.00 75 1014.4
20260504042333 6 284 0.0 0.0 0.00 0.00 0.00 75 1014.3
20260504041835 6 284 0.0 0.0 0.00 0.00 0.00 74 1014.3
20260504041333 7 284 0.0 0.0 0.00 0.00 0.00 74 1014.3
20260504040833 7 284 0.0 0.0 0.00 0.00 0.00 73 1014.4
20260504040333 7 284 0.0 0.0 0.00 0.00 0.00 73 1014.4
20260504035846 7 284 0.0 0.0 0.00 0.00 0.00 73 1014.3
20260504035326 7 284 0.0 0.0 0.00 0.00 0.00 73 1014.3
20260504034847 7 284 0.0 0.0 0.00 0.00 0.00 72 1014.3
20260504034326 7 284 0.0 0.0 0.00 0.00 0.00 71 1014.3
20260504033826 7 284 0.0 0.0 0.00 0.00 0.00 71 1014.4
20260504033350 7 284 0.0 0.0 0.00 0.00 0.00 70 1014.4
20260504032828 7 284 0.0 0.0 0.00 0.00 0.00 70 1014.3
20260504032329 7 284 0.0 0.0 0.00 0.00 0.00 69 1014.4
20260504031830 7 284 0.0 0.0 0.00 0.00 0.00 69 1014.4
20260504031345 8 284 0.0 0.0 0.00 0.00 0.00 68 1014.3
20260504030848 8 284 0.0 0.0 0.00 0.00 0.00 67 1014.4
20260504030329 8 284 0.0 0.0 0.00 0.00 0.00 67 1014.4
20260504025829 8 284 0.0 0.0 0.00 0.00 0.00 66 1014.5
20260504025330 8 284 0.0 0.0 0.00 0.00 0.00 66 1014.5
20260504024833 8 284 0.0 0.0 0.00 0.00 0.00 66 1014.5
20260504024332 8 284 0.0 0.0 0.00 0.00 0.00 66 1014.5
20260504023853 8 284 0.0 0.0 0.00 0.00 0.00 65 1014.5
20260504023335 8 284 0.0 0.0 0.00 0.00 0.00 64 1014.5
20260504022835 9 284 0.0 0.0 0.00 0.00 0.00 63 1014.5
20260504022335 9 284 0.0 0.0 0.00 0.00 0.00 64 1014.5
20260504021837 9 284 0.0 0.0 0.00 0.00 0.00 65 1014.5
20260504020856 10 284 0.0 0.0 0.00 0.00 0.00 61 1014.6
20260504020318 10 284 0.0 0.0 0.00 0.00 0.00 61 1014.5
20260504015819 10 284 0.0 0.0 0.00 0.00 0.00 60 1014.5
20260504015319 10 284 0.0 0.0 0.00 0.00 0.00 60 1014.5
20260504014822 10 284 0.0 0.0 0.00 0.00 0.00 60 1014.5
20260504014342 10 284 0.0 0.0 0.00 0.00 0.00 59 1014.5
20260504013820 10 284 0.0 0.0 0.00 0.00 0.00 59 1014.5
20260504013322 10 284 0.0 0.0 0.00 0.00 0.00 57 1014.4
20260504012819 10 284 0.0 0.0 0.00 0.00 0.00 58 1014.3
20260504012319 11 284 0.0 0.0 0.00 0.00 0.00 58 1014.3
20260504011821 11 284 0.0 1.6 0.00 0.00 0.00 56 1014.3
20260504011321 11 284 0.0 1.6 0.00 0.00 0.00 56 1014.3
20260504010821 11 284 0.0 0.0 0.00 0.00 0.00 55 1014.3
20260504010322 11 284 0.0 0.0 0.00 0.00 0.00 55 1014.3
20260504005843 11 284 0.0 0.0 0.00 0.00 0.00 55 1014.3
20260504005319 11 284 0.0 1.6 0.00 0.00 0.00 54 1014.2
20260504004821 11 284 0.0 1.6 0.00 0.00 0.00 53 1014.2
20260504004337 11 284 0.0 1.6 0.00 0.00 0.00 54 1014.3
20260504003817 11 284 0.0 1.6 0.00 0.00 0.00 54 1014.2
20260504003319 12 284 0.0 1.6 0.00 0.00 0.00 54 1014.3
20260504002839 12 284 0.0 0.0 0.00 0.00 0.00 52 1014.2
20260504002320 12 284 0.0 3.2 0.00 0.00 0.00 52 1014.2
20260504001821 12 284 0.0 3.2 0.00 0.00 0.00 51 1014.2
20260504001322 12 284 0.0 3.2 0.00 0.00 0.00 52 1014.2
20260504000822 12 284 0.0 1.6 0.00 0.00 0.00 50 1014.2
20260504000323 12 284 0.0 1.6 0.00 0.00 0.00 50 1014.1
20260503235823 12 284 0.0 3.2 0.00 0.00 0.00 49 1014.2
20260503235323 12 284 0.0 3.2 0.00 0.00 0.00 49 1014.1
20260503234825 13 284 0.0 3.2 0.00 0.00 0.00 49 1014.2
20260503234345 13 284 0.0 3.2 0.00 0.00 0.00 48 1014.2
20260503233824 13 284 0.0 3.2 0.00 0.00 0.00 48 1014.2
20260503233326 13 258 0.0 3.2 0.00 0.00 0.00 47 1014.3
20260503232826 13 257 0.0 6.4 0.00 0.00 0.00 47 1014.2
20260503232326 13 263 1.6 12.9 0.00 0.00 0.00 47 1014.3
20260503231826 13 237 4.8 12.9 0.00 0.00 0.00 45 1014.3
20260503231325 13 289 4.8 12.9 0.00 0.00 0.00 45 1014.3
20260503230826 13 253 3.2 11.3 0.00 0.00 0.00 46 1014.3
20260503230327 13 252 6.4 11.3 0.00 0.00 0.00 46 1014.4
20260503225847 13 346 1.6 9.7 0.00 0.00 0.00 47 1014.4
20260503225326 13 219 3.2 9.7 0.00 0.00 0.00 46 1014.4
20260503224848 13 300 1.6 6.4 0.00 0.00 0.00 46 1014.4
20260503224327 13 263 1.6 14.5 0.00 0.00 0.00 46 1014.4
20260503223828 13 266 8.0 14.5 0.00 0.00 0.00 45 1014.4
20260503223331 13 290 4.8 11.3 0.00 0.00 0.00 46 1014.5
20260503222829 13 84 1.6 9.7 0.00 0.00 0.00 45 1014.5
20260503222350 13 135 3.2 17.7 0.00 0.00 0.00 45 1014.4
20260503221828 14 236 1.6 17.7 0.00 0.00 0.00 44 1014.5
20260503221328 14 290 3.2 12.9 0.00 0.00 0.00 46 1014.5
20260503220829 14 195 1.6 12.9 0.00 0.00 0.00 44 1014.5
20260503220331 14 266 6.4 16.1 0.00 0.00 0.00 45 1014.5
20260503215852 14 249 11.3 16.1 0.00 0.00 0.00 44 1014.5
20260503215330 14 100 4.8 20.9 0.00 0.00 0.00 42 1014.4
20260503214830 14 225 6.4 17.7 0.00 0.00 0.00 44 1014.6
20260503214331 14 268 6.4 17.7 0.00 0.00 0.00 44 1014.5
20260503213832 15 272 6.4 16.1 0.00 0.00 0.00 44 1014.4
20260503213334 15 293 8.0 16.1 0.00 0.00 0.00 45 1014.4
20260503212833 14 254 4.8 11.3 0.00 0.00 0.00 44 1014.4
20260503212334 15 233 6.4 12.9 0.00 0.00 0.00 43 1014.4
20260503211836 15 94 3.2 12.9 0.00 0.00 0.00 44 1014.3
20260503211334 15 250 8.0 12.9 0.00 0.00 0.00 44 1014.4
20260503210836 15 267 8.0 16.1 0.00 0.00 0.00 45 1014.4
20260503210337 15 283 8.0 16.1 0.00 0.00 0.00 44 1014.4
20260503205852 14 266 6.4 17.7 0.00 0.00 0.00 45 1014.5
20260503205332 14 264 4.8 17.7 0.00 0.00 0.00 46 1014.6
20260503204834 14 298 4.8 24.1 0.00 0.00 0.00 44 1014.6
20260503204317 14 263 9.7 22.5 0.00 0.00 0.00 44 1014.7
20260503203818 14 241 4.8 22.5 0.00 0.00 0.00 44 1014.7
20260503203334 14 242 8.0 22.5 0.00 0.00 0.00 46 1014.8
20260503202854 14 282 4.8 11.3 0.00 0.00 0.00 44 1014.9
20260503202333 15 231 3.2 17.7 0.00 0.00 0.00 45 1014.9
20260503201834 15 254 6.4 22.5 0.00 0.00 0.00 46 1015.0
20260503201335 15 255 9.7 22.5 0.00 0.00 0.00 45 1015.1
20260503200833 14 223 9.7 17.7 0.00 0.00 0.00 45 1015.2
20260503200334 14 256 3.2 22.5 0.00 0.00 0.00 45 1015.2
20260503195834 14 232 6.4 22.5 0.00 0.00 0.00 45 1015.3
20260503195335 14 213 8.0 17.7 0.00 0.00 0.00 44 1015.3
20260503194835 14 257 8.0 17.7 0.00 0.00 0.00 45 1015.4
20260503194336 15 258 6.4 19.3 0.00 0.00 0.00 44 1015.5
20260503193856 15 264 4.8 19.3 0.00 0.00 0.00 48 1015.5
20260503193356 15 263 6.4 12.9 0.00 0.00 0.00 45 1015.5
20260503192834 14 263 4.8 12.9 0.00 0.00 0.00 47 1015.5
20260503192352 14 227 1.6 17.7 0.00 0.00 0.00 46 1015.6
20260503191853 14 255 8.0 17.7 0.00 0.00 0.00 49 1015.7
20260503191332 14 288 6.4 17.7 0.00 0.00 0.00 49 1015.7
20260503190831 14 295 3.2 17.7 0.00 0.00 0.00 47 1015.9
20260503190332 13 327 8.0 17.7 0.00 0.00 0.00 46 1015.9
20260503185832 13 250 9.7 16.1 0.00 0.00 0.00 48 1016.0
20260503185331 13 289 8.0 16.1 0.00 0.00 0.00 49 1016.1
20260503184833 13 288 4.8 12.9 0.00 0.00 0.00 46 1016.1
20260503184332 13 274 4.8 16.1 0.00 0.00 0.00 46 1016.2
20260503183853 14 217 3.2 22.5 0.00 0.00 0.00 47 1016.3
20260503183334 14 274 6.4 17.7 0.00 0.00 0.00 49 1016.3
20260503182832 13 252 8.0 17.7 0.00 0.00 0.00 46 1016.4
20260503182332 14 245 1.6 19.3 0.00 0.00 0.00 51 1016.3
20260503181833 14 226 11.3 20.9 0.00 0.00 0.00 44 1016.5
20260503181353 15 277 4.8 22.5 0.00 0.00 0.00 49 1016.5
20260503180832 15 252 8.0 22.5 0.00 0.00 0.00 47 1016.5
20260503180334 14 123 9.7 14.5 0.00 0.00 0.00 47 1016.5
20260503175834 15 267 4.8 16.1 0.00 0.00 0.00 45 1016.5
20260503175334 15 138 4.8 17.7 0.00 0.00 0.00 50 1016.6
20260503174834 15 252 6.4 17.7 0.00 0.00 0.00 49 1016.7
20260503174332 14 292 4.8 16.1 0.00 0.00 0.00 47 1016.7
20260503173830 14 241 4.8 16.1 0.00 0.00 0.00 47 1016.8
20260503173332 14 250 3.2 17.7 0.00 0.00 0.00 47 1016.8
20260503172852 14 281 8.0 19.3 0.00 0.00 0.00 47 1017.0
20260503172333 14 245 9.7 19.3 0.00 0.00 0.00 49 1017.0
20260503171855 14 316 1.6 11.3 0.00 0.00 0.00 47 1016.9
20260503171332 14 299 3.2 14.5 0.00 0.00 0.00 47 1017.0
20260503170832 13 294 6.4 12.9 0.00 0.00 0.00 49 1017.2
20260503170332 13 254 3.2 14.5 0.00 0.00 0.00 48 1017.2
20260503150832 10 273 8.0 14.5 0.00 0.00 0.00 54 1018.1
20260503150354 10 266 8.0 16.1 0.00 0.00 0.00 54 1018.1
20260503131325 6 259 6.4 14.5 0.00 0.00 0.00 73 1018.6
20260503130823 6 360 6.4 12.9 0.00 0.00 0.00 75 1018.6
20260503130325 6 246 4.8 14.5 0.00 0.00 0.00 76 1018.6
20260503110823 1 267 0.0 0.0 0.00 0.00 0.00 92 1017.9
20260503110324 1 267 0.0 0.0 0.00 0.00 0.00 92 1017.9
20260503090355 2 298 0.0 0.0 0.00 0.00 0.00 91 1017.1
20260503081319 2 298 0.0 0.0 0.00 0.00 0.00 92 1017.0
20260503080818 2 298 0.0 0.0 0.00 0.00 0.00 92 1017.0
20260503080320 2 298 0.0 0.0 0.00 0.00 0.00 92 1017.0
20260503072822 1 298 0.0 0.0 0.00 0.00 0.00 92 1016.8
20260503072322 1 298 0.0 0.0 0.00 0.00 0.00 92 1016.8
20260503071825 1 298 0.0 0.0 0.00 0.00 0.00 92 1016.8
20260503071325 1 298 0.0 0.0 0.00 0.00 0.00 92 1016.8
20260503070824 1 298 0.0 0.0 0.00 0.00 0.00 91 1016.7
20260503070324 1 298 0.0 0.0 0.00 0.00 0.00 91 1016.7
20260503060327 2 298 0.0 0.0 0.00 0.00 0.00 88 1016.8
20260503054829 2 298 0.0 0.0 0.00 0.03 0.00 87 1016.8
20260503054329 2 298 0.0 0.0 0.00 0.03 0.00 86 1016.8
20260503053828 2 298 0.0 0.0 0.00 0.03 0.00 86 1016.8
20260503053329 2 298 0.0 0.0 0.00 0.03 0.00 85 1016.8